sat.trackr.live / text

‹ back to catalog

SITRO-AIS-65

NORAD 67266 · 2025-313U

PAYLOAD ACTIVE UNKNOWN

§ Identity

Operator
Country
CIS
Launch date
2025-12-28
Launch site
VOSTO
Launch vehicle
Mass (kg)
RCS (m²)

External: N2YO · Heavens-Above · Gunter

§ Orbital elements

Epoch: 2026-09-20T04:16:39.488448Z

Period
94.44 min
Inclination
97.3881°
Eccentricity
0.0014476
Mean motion
15.24851616 rev/d
Perigee alt
481.3 km
Apogee alt
501.2 km
Semi-major
6,869.4 km
B*
2.2857e-4
RAAN
336.6210°
Arg perigee
34.6191°
Mean anomaly
325.5986°
Rev number
4,042

§ Raw data

SITRO-AIS-651 67266U 25313U   26263.17823482  .00005622  00000+0  22857-3 0  99962 67266  97.3881 336.6210 0014476  34.6191 325.5986 15.24851616 40429

JSON: /api/v1/satellites/67266 · /tle

For live sub-satellite position, see the globe view (requires WebGL).

§ Visibility from observer

Set your observer location to see the next 7 days of passes ≥ 10°. The values pass through the URL so the page stays shareable.

No JS? Fill the form by hand. The geolocation button needs JavaScript.